Location: Azul
(36.7830°S, 59.8500°W)
Time: 09:58:11
(UTC-03:00)

ISS - Pass Details

Date: 08 December 2017
Orbit: 402 x 406 km, 51.6° (Epoch: 16 December)

Event Time Altitude Azimuth Distance (km) Brightness Sun altitude
Exits shadow 03:27:05 42° 229° (SW) 600 -3.0 -20.1°
Maximum altitude 03:27:18 43° 216° (SW) 593 -3.0 -20.0°
Drops below altitude 10° 03:30:30 10° 143° (SE) 1,485 0.3 -19.6°
Sets 03:32:40 0° 135° (SE) 2,352 1.7 -19.4°
